Florence, SC

7:06 PM EDT on September 25, 2017 (GMT -0400)
Florence Regional

Weather History for KFLO - March, 2014

Change the Weather History Date:

Saturday, March 8, 2014

  Actual Average Record
Temperature  
Mean Temperature 50 °F 54 °F  
Max Temperature 69 °F 65 °F 90 °F (1974)
Min Temperature 30 °F 42 °F 26 °F (1960)
Degree Days  
Heating Degree Days 15 12  
Month to date heating degree days 174 102  
Since 1 July heating degree days 2303 2168  
Cooling Degree Days 0 0  
Month to date cooling degree days 0 0  
Year to date cooling degree days 6 6  
Moisture  
Dew Point 37 °F    
Average Humidity 67    
Maximum Humidity 100    
Minimum Humidity 33    
Precipitation  
Precipitation 0.00 in 0.12 in 1.39 in (1998)
Month to date precipitation 1.82 0.90  
Year to date precipitation 7.54 7.05  
Sea Level Pressure  
Sea Level Pressure 30.05 in    
Wind  
Wind Speed 7 mph (WSW)    
Max Wind Speed 15 mph    
Max Gust Speed 21 mph    
Visibility 8 miles    
Events      
T = Trace of Precipitation, MM = Missing Value Source: NWS Daily Summary

Daily Weather History Graph

Daily Weather History Graph

Search for Another Location

Airport or City:

Trip Planner

Search our weather history database for the weather conditions in past years. The results will help you decide how hot, cold, wet, or windy it might be!

Date:

Astronomy

Mar. 08, 2014 Rise Set
Actual Time 6:38 AM EST 6:20 PM EST
Civil Twilight 6:13 AM EST 6:46 PM EST
Nautical Twilight 5:44 AM EST 7:15 PM EST
Astronomical Twilight 5:15 AM EST 7:44 PM EST
Moon 11:35 AM EST (3/8) 1:01 AM EST (3/8)
Length of Visible Light 12h 32m
Length of Day
11h 42m
First Quarter, 51% of the Moon is Illuminated
Mar 8
First Quarter
Mar 16
Full
Mar 23
Last Quarter
Mar 30
New
Apr 7
First Quarter

Hourly Weather History & Observations

Time (EST) Temp. Windchill Dew Point Humidity Pressure Visibility Wind Dir Wind Speed Gust Speed Precip Events Conditions
12:13 AM 34.0 °F 28.8 °F 32.0 °F 92% 30.00 in 1.8 mi WSW 5.8 mph - N/A   Clear
12:21 AM 33.1 °F 26.9 °F 32.0 °F 96% 30.01 in 3.0 mi West 6.9 mph - N/A   Clear
12:53 AM 36.0 °F 32.1 °F 34.0 °F 93% 30.02 in 8.0 mi West 4.6 mph - N/A   Clear
1:53 AM 35.1 °F 32.2 °F 34.0 °F 96% 30.03 in 9.0 mi WNW 3.5 mph - N/A   Clear
2:53 AM 34.0 °F - 33.1 °F 96% 30.01 in 4.0 mi Calm Calm - N/A   Clear
3:53 AM 33.1 °F 27.7 °F 32.0 °F 96% 30.03 in 7.0 mi West 5.8 mph - N/A   Clear
4:53 AM 35.1 °F 32.2 °F 33.1 °F 92% 30.03 in 9.0 mi WNW 3.5 mph - N/A   Clear
5:22 AM 30.9 °F - 30.0 °F 96% 30.04 in 1.8 mi Calm Calm - N/A   Clear
5:32 AM 33.1 °F 30.0 °F 30.0 °F 89% 30.05 in 3.0 mi WNW 3.5 mph - N/A   Clear
5:53 AM 33.1 °F 30.0 °F 30.9 °F 92% 30.06 in 6.0 mi West 3.5 mph - N/A   Clear
6:16 AM 30.9 °F 26.2 °F 28.9 °F 92% 30.07 in 2.0 mi West 4.6 mph - N/A   Clear
6:19 AM 30.0 °F 23.2 °F 28.9 °F 96% 30.07 in 5.0 mi West 6.9 mph - N/A   Clear
6:53 AM 30.9 °F 26.2 °F 28.9 °F 92% 30.08 in 6.0 mi WNW 4.6 mph - N/A   Clear
7:53 AM 37.9 °F 34.4 °F 36.0 °F 93% 30.11 in 10.0 mi WSW 4.6 mph - N/A   Clear
8:53 AM 46.9 °F - 39.0 °F 74% 30.12 in 10.0 mi WSW 10.4 mph - N/A   Clear
9:53 AM 53.1 °F - 41.0 °F 64% 30.12 in 10.0 mi West 9.2 mph - N/A   Clear
10:53 AM 57.9 °F - 43.0 °F 58% 30.11 in 10.0 mi WSW 10.4 mph - N/A   Clear
11:53 AM 62.1 °F - 44.1 °F 52% 30.11 in 10.0 mi WSW 13.8 mph 18.4 mph N/A   Clear
12:53 PM 64.0 °F - 44.1 °F 48% 30.09 in 10.0 mi West 10.4 mph - N/A   Clear
1:53 PM 66.0 °F - 43.0 °F 43% 30.04 in 10.0 mi West 10.4 mph - N/A   Clear
2:53 PM 68.0 °F - 39.0 °F 35% 30.03 in 10.0 mi West 10.4 mph - N/A   Clear
3:53 PM 69.1 °F - 39.9 °F 35% 30.01 in 10.0 mi WNW 9.2 mph - N/A   Clear
4:53 PM 68.0 °F - 41.0 °F 37% 30.01 in 10.0 mi SW 11.5 mph - N/A   Clear
5:53 PM 64.9 °F - 42.1 °F 43% 30.02 in 10.0 mi SSW 8.1 mph - N/A   Clear
6:53 PM 59.0 °F - 43.0 °F 55% 30.03 in 10.0 mi SSW 6.9 mph - N/A   Clear
7:53 PM 55.9 °F - 43.0 °F 62% 30.04 in 10.0 mi South 4.6 mph - N/A   Clear
8:53 PM 55.0 °F - 44.1 °F 67% 30.05 in 10.0 mi SSW 5.8 mph - N/A   Clear
9:53 PM 54.0 °F - 44.1 °F 69% 30.04 in 10.0 mi SSW 5.8 mph - N/A   Clear
10:53 PM 53.1 °F - 44.1 °F 71% 30.04 in 10.0 mi SW 8.1 mph - N/A   Clear
11:53 PM 52.0 °F - 44.1 °F 74% 30.03 in 10.0 mi SW 6.9 mph - N/A   Clear